Renton, WA
on Monday, November 26, 2012

Monday
Previous Day Next Day
Daily Summary
 ActualAverage (KSEA)Record (KSEA)
Temperature
Mean Temperature °F 43°F  
Max Temperature 50°F 48°F 61°F (1949)
Min Temperature 37°F 38°F 25°F (1952)
Degree Days
Heating Degree Days 22 22  
Month to date heating degree days 497  
Since 1 July heating degree days 1094  
Cooling Degree Days 0 0  
Month to date cooling degree days 0  
Year to date cooling degree days 189  
Growing Degree Days0 (Base °F )  
Moisture
Dew Point 34°F   
Average Humidity 76    
Maximum Humidity 87    
Minimum Humidity 54    
Precipitation
Precipitation 0.00 in 0.22 in 1.34 in (2009)
Month to date precipitation 5.69  
Year to date precipitation 31.26  
Snow
Snow 0.00 in in 2.20 in (1964)
Month to date snowfall  
Since 1 July snowfall  
Snow Depth in   
Wind
Wind Speed 9 mph   
Max Wind Speed 16 mph   
Max Gust Speed 21 mph   
Visibility 10 miles   
Events     

Key: T is trace of precipitation, MM is missing value
Source: NWS Daily Summary
Time(PST)TemperatureDew PointHumidity Pressure Visibility Wind DirectionWind SpeedGust SpeedPrecipitationEvents Conditions
12:18 AM 39.2°F 35.6°F 87% 30.22 in 9.0 miles NNW 12.7 mph - N/A   Mostly Cloudy
12:35 AM 39.2°F 35.6°F 87% 30.22 in 10.0 miles NW 16.1 mph - N/A   Scattered Clouds
12:53 AM 39.9°F 35.1°F 83% 30.24 in 10.0 miles NW 13.8 mph - N/A   Partly Cloudy
1:53 AM 39.9°F 35.1°F 83% 30.23 in 10.0 miles NW 9.2 mph - N/A   Clear
2:53 AM 39.9°F 35.1°F 83% 30.19 in 10.0 miles NW 10.4 mph - N/A   Clear
3:53 AM 39.0°F 33.1°F 79% 30.18 in 10.0 miles NW 12.7 mph 20.7 mph N/A   Clear
4:53 AM 37.9°F 33.1°F 83% 30.18 in 10.0 miles NW 12.7 mph - 0.00 in   Partly Cloudy
5:53 AM 37.9°F 33.1°F 83% 30.17 in 10.0 miles NW 13.8 mph 19.6 mph 0.00 in   Clear
6:53 AM 37.9°F 32.0°F 79% 30.17 in 9.0 miles WNW 13.8 mph - 0.00 in   Clear
7:53 AM 37.9°F 32.0°F 79% 30.16 in 10.0 miles NNW 11.5 mph - 0.00 in   Clear
8:53 AM 39.0°F 33.1°F 79% 30.14 in 10.0 miles North 8.1 mph - N/A   Clear
9:53 AM 41.0°F 34.0°F 76% 30.14 in 10.0 miles NNW 6.9 mph - N/A   Clear
10:53 AM 43.0°F 35.1°F 74% 30.14 in 10.0 miles NNW 4.6 mph - N/A   Clear
11:53 AM 45.0°F 36.0°F 71% 30.12 in 10.0 miles NNW 4.6 mph - N/A   Clear
12:53 PM 48.0°F 36.0°F 63% 30.09 in 10.0 miles NNW 6.9 mph - N/A   Clear
1:53 PM 50.0°F 35.1°F 57% 30.08 in 10.0 miles WNW 6.9 mph - N/A   Clear
2:53 PM 50.0°F 34.0°F 54% 30.07 in 10.0 miles WNW 5.8 mph - N/A   Clear
3:53 PM 46.9°F 34.0°F 61% 30.06 in 10.0 miles WNW 5.8 mph - N/A   Clear
4:53 PM 46.0°F 35.1°F 66% 30.06 in 10.0 miles NW 3.5 mph - N/A   Clear
5:53 PM 43.0°F 35.1°F 74% 30.07 in 10.0 miles Calm Calm - N/A   Clear
6:53 PM 42.1°F 35.1°F 76% 30.07 in 10.0 miles Calm Calm - N/A   Clear
7:53 PM 41.0°F 35.1°F 79% 30.07 in 10.0 miles Calm Calm - N/A   Clear
8:53 PM 39.0°F 34.0°F 82% 30.07 in 10.0 miles Calm Calm - N/A   Clear
9:53 PM 37.9°F 33.1°F 83% 30.08 in 10.0 miles Calm Calm - N/A   Clear
10:53 PM 37.0°F 32.0°F 82% 30.09 in 10.0 miles Calm Calm - N/A   Clear
11:53 PM 37.0°F 33.1°F 86% 30.09 in 9.0 miles Calm Calm - N/A   Clear
Moon Phase
Nov. 26 Nov. 28 Dec. 06 Dec. 13 Dec. 20
Sunrise:07:30 AM (PST) Moon Rise:03:21 PM (PST)11/26
Sunset:04:22 PM (PST) Moon Set:05:41 AM (PST)11/26

Copyright © 2014 The Weather Underground, Inc.